Flushing, NY

12:20 PM EDT on September 29, 2016 (GMT -0400)
La Guardia

Weather History for KLGA - April, 2012

Change the Weather History Date:

Monday, April 2, 2012

  Actual Average Record
Temperature  
Mean Temperature 50 °F 48 °F  
Max Temperature 56 °F 56 °F 79 °F (1967)
Min Temperature 43 °F 40 °F 34 °F (1964)
Degree Days  
Heating Degree Days 15 17  
Month to date heating degree days 32 35  
Since 1 July heating degree days 3272 4171  
Cooling Degree Days 0 0  
Month to date cooling degree days 0 0  
Year to date cooling degree days 0 0  
Moisture  
Dew Point 30 °F    
Average Humidity 53    
Maximum Humidity 86    
Minimum Humidity 20    
Precipitation  
Precipitation 0.04 in 0.14 in 1.66 in (2005)
Month to date precipitation 0.60 0.28  
Year to date precipitation 5.45 10.18  
Snow  
Snow 0.00 in 0.10 in 0.70 in (1965)
Month to date snowfall 0.0 0.1  
Since 1 July snowfall 5.1 26.5  
Snow Depth 0.00 in    
Sea Level Pressure  
Sea Level Pressure 29.71 in    
Wind  
Wind Speed 16 mph (NNW)    
Max Wind Speed 31 mph    
Max Gust Speed 40 mph    
Visibility 9 miles    
Events Rain    
T = Trace of Precipitation, MM = Missing Value Source: NWS Daily Summary

Daily Weather History Graph

Daily Weather History Graph

Search for Another Location

Airport or City:

Trip Planner

Search our weather history database for the weather conditions in past years. The results will help you decide how hot, cold, wet, or windy it might be!

Date:

Astronomy

Apr. 02, 2012 Rise Set
Actual Time 6:36 AM EDT 7:21 PM EDT
Civil Twilight 6:08 AM EDT 7:49 PM EDT
Nautical Twilight 5:36 AM EDT 8:22 PM EDT
Astronomical Twilight 5:02 AM EDT 8:56 PM EDT
Moon 2:53 PM EDT (4/2) 3:50 AM EDT (4/2)
Length of Visible Light 13h 40m
Length of Day
12h 45m
Waxing Gibbous, 78% of the Moon is Illuminated
Apr 2
Waxing Gibbous
Apr 6
Full
Apr 13
Last Quarter
Apr 21
New
Apr 29
First Quarter

Hourly Weather History & Observations

Time (EDT) Temp. Windchill Dew Point Humidity Pressure Visibility Wind Dir Wind Speed Gust Speed Precip Events Conditions
12:15 AM 48.2 °F - 44.6 °F 87% 29.62 in 2.5 mi NNW 3.5 mph - 0.04 in Rain Rain
12:42 AM 46.4 °F 41.9 °F 42.8 °F 87% 29.61 in 5.0 mi NNW 9.2 mph - 0.11 in Rain Rain
12:51 AM 46.9 °F - 43.0 °F 86% 29.61 in 5.0 mi North 8.1 mph - 0.12 in Rain Rain
1:30 AM 46.4 °F 42.9 °F 42.8 °F 87% 29.61 in 8.0 mi NNW 6.9 mph - 0.03 in Rain Light Rain
1:51 AM 46.9 °F - 41.0 °F 80% 29.60 in 10.0 mi North 4.6 mph - 0.05 in Rain Light Rain
2:12 AM 46.4 °F 41.9 °F 39.2 °F 76% 29.60 in 10.0 mi North 9.2 mph - 0.00 in   Overcast
2:51 AM 46.0 °F 41.0 °F 39.0 °F 76% 29.60 in 10.0 mi North 10.4 mph - 0.00 in   Mostly Cloudy
3:51 AM 44.1 °F 37.1 °F 36.0 °F 73% 29.61 in 10.0 mi NNE 15.0 mph 19.6 mph N/A   Mostly Cloudy
4:51 AM 43.0 °F 36.8 °F 35.1 °F 74% 29.62 in 10.0 mi North 11.5 mph - N/A   Scattered Clouds
5:51 AM 43.0 °F 35.7 °F 35.1 °F 74% 29.64 in 10.0 mi NNW 15.0 mph - N/A   Scattered Clouds
6:51 AM 43.0 °F 36.4 °F 34.0 °F 71% 29.67 in 10.0 mi NNW 12.7 mph - N/A   Partly Cloudy
7:51 AM 44.6 °F 38.4 °F 33.8 °F 66% 29.70 in 10.0 mi North 12.7 mph - N/A   Scattered Clouds
8:51 AM 44.1 °F 37.4 °F 33.1 °F 65% 29.73 in 10.0 mi NNW 13.8 mph 25.3 mph N/A   Mostly Cloudy
9:51 AM 46.0 °F 37.8 °F 30.9 °F 56% 29.75 in 10.0 mi North 23.0 mph 27.6 mph N/A   Scattered Clouds
10:51 AM 46.0 °F 37.8 °F 30.0 °F 54% 29.78 in 10.0 mi North 23.0 mph 36.8 mph N/A   Mostly Cloudy
11:51 AM 46.9 °F - 28.9 °F 50% 29.78 in 10.0 mi NNW 19.6 mph 27.6 mph N/A   Mostly Cloudy
12:51 PM 50.0 °F - 28.9 °F 44% 29.78 in 10.0 mi North 19.6 mph 26.5 mph N/A   Scattered Clouds
1:51 PM 51.1 °F - 26.1 °F 38% 29.78 in 10.0 mi North 15.0 mph 25.3 mph N/A   Scattered Clouds
2:51 PM 53.1 °F - 24.1 °F 32% 29.76 in 10.0 mi WNW 13.8 mph 21.9 mph N/A   Scattered Clouds
3:51 PM 55.0 °F - 23.0 °F 29% 29.74 in 10.0 mi NW 19.6 mph 24.2 mph N/A   Scattered Clouds
4:51 PM 55.9 °F - 19.9 °F 25% 29.73 in 10.0 mi NW 25.3 mph 33.4 mph N/A   Clear
5:51 PM 55.9 °F - 19.0 °F 24% 29.75 in 10.0 mi NW 24.2 mph 31.1 mph N/A   Partly Cloudy
6:51 PM 55.0 °F - 16.0 °F 22% 29.75 in 10.0 mi NNW 19.6 mph 26.5 mph N/A   Partly Cloudy
7:51 PM 54.0 °F - 14.0 °F 21% 29.78 in 10.0 mi NNW 23.0 mph 27.6 mph N/A   Partly Cloudy
8:51 PM 51.8 °F - 15.8 °F 24% 29.81 in 10.0 mi NNW 16.1 mph - N/A   Clear
9:51 PM 50.0 °F - 17.1 °F 27% 29.85 in 10.0 mi NNW 18.4 mph 28.8 mph N/A   Clear
10:51 PM 48.9 °F - 16.0 °F 27% 29.87 in 10.0 mi NNW 17.3 mph 25.3 mph N/A   Clear
11:51 PM 48.0 °F - 18.0 °F 30% 29.88 in 10.0 mi NNW 10.4 mph 20.7 mph N/A   Clear